DW7898 Weather Reports


Display with metric or nautical units.
time (UTC)temp
F
wind
direction
speed
MPH
gust
MPH
rain 1hr
in
rain 24hr
in
rain mn
in
humidity
%
barometer
mb
20260831131349 84 135 5.0 14.0 0.00 0.00 0.00 60 1020.5
20260831130347 84 113 4.0 14.0 0.00 0.00 0.00 59 1020.5
20260831125404 84 165 6.0 14.0 0.00 0.00 0.00 60 1020.6
20260831124340 84 129 6.0 16.0 0.00 0.00 0.00 58 1020.7
20260831123400 84 134 8.0 15.0 0.00 0.00 0.00 57 1020.8
20260831122355 84 130 7.0 15.0 0.00 0.00 0.00 56 1020.7
20260831121353 84 190 8.0 15.0 0.00 0.00 0.00 55 1020.7
20260831120341 85 92 9.0 14.0 0.00 0.00 0.00 53 1020.8
20260831115355 85 71 5.0 14.0 0.00 0.00 0.00 53 1020.8
20260831114348 85 142 8.0 14.0 0.00 0.00 0.00 52 1020.8
20260831113349 85 168 6.0 14.0 0.00 0.00 0.00 51 1020.9
20260831112400 85 125 5.0 12.0 0.00 0.00 0.00 52 1020.9
20260831111341 85 121 4.0 14.0 0.00 0.00 0.00 51 1020.8
20260831110344 85 110 4.0 13.0 0.00 0.00 0.00 50 1021.0
20260831105353 86 118 5.0 11.0 0.00 0.00 0.00 48 1020.9
20260831104351 85 129 5.0 8.0 0.00 0.00 0.00 49 1020.9
20260831103342 85 201 5.0 8.0 0.00 0.00 0.00 50 1021.0
20260831102353 84 245 2.0 7.0 0.00 0.00 0.00 51 1021.1
20260831101348 84 333 2.0 6.0 0.00 0.00 0.00 52 1021.0
20260831100347 83 214 3.0 5.0 0.00 0.00 0.00 54 1021.1
20260831095339 83 262 6.0 9.0 0.00 0.00 0.00 54 1021.2
20260831094355 82 202 2.0 6.0 0.00 0.00 0.00 55 1021.2
20260831093351 82 226 2.0 6.0 0.00 0.00 0.00 56 1021.2
20260831092344 81 327 4.0 6.0 0.00 0.00 0.00 57 1021.3
20260831091349 81 282 1.0 5.0 0.00 0.00 0.00 58 1021.2
20260831090351 81 24 2.0 4.0 0.00 0.00 0.00 57 1021.4
20260831085349 80 32 0.0 4.0 0.00 0.00 0.00 56 1021.2
20260831084344 80 58 2.0 4.0 0.00 0.00 0.00 52 1021.1
20260831083341 79 48 1.0 4.0 0.00 0.00 0.00 50 1021.1
20260831082354 78 0 1.0 4.0 0.00 0.00 0.00 50 1021.0
20260831081337 76 0 1.0 3.0 0.00 0.00 0.00 51 1021.0
20260831080340 75 0 2.0 4.0 0.00 0.00 0.00 52 1021.0
20260831075359 74 359 1.0 4.0 0.00 0.00 0.00 53 1021.0
20260831074342 74 359 2.0 4.0 0.00 0.00 0.00 54 1020.9
20260831073346 74 359 3.0 4.0 0.00 0.00 0.00 55 1020.7
20260831072345 72 0 1.0 4.0 0.00 0.00 0.00 57 1020.7
20260831071352 72 247 2.0 4.0 0.00 0.00 0.00 59 1020.7
20260831070354 71 235 2.0 3.0 0.00 0.00 0.00 61 1020.7
20260831065352 71 234 0.0 1.0 0.00 0.00 0.00 63 1020.5
20260831064358 70 234 0.0 1.0 0.00 0.00 0.00 63 1020.5
20260831063338 70 234 0.0 2.0 0.00 0.00 0.00 63 1020.4
20260831062354 70 234 0.0 2.0 0.00 0.00 0.00 64 1020.4
20260831061356 69 234 1.0 2.0 0.00 0.00 0.00 65 1020.1
20260831060338 68 234 1.0 3.0 0.00 0.00 0.00 65 1019.8
20260831055356 68 234 0.0 2.0 0.00 0.00 0.00 64 1019.8
20260831054337 67 234 0.0 2.0 0.00 0.00 0.00 65 1019.8
20260831053338 67 234 1.0 3.0 0.00 0.00 0.00 64 1019.6
20260831052354 67 233 1.0 2.0 0.00 0.00 0.00 63 1019.4
20260831051339 67 233 0.0 3.0 0.00 0.00 0.00 64 1019.4
20260831050342 68 233 2.0 3.0 0.00 0.00 0.00 64 1019.2
20260831045340 68 233 0.0 0.0 0.00 0.00 0.00 65 1019.3
20260831044348 68 233 0.0 1.0 0.00 0.00 0.00 65 1019.3
20260831043336 68 233 1.0 2.0 0.00 0.00 0.00 64 1019.3
20260831042352 69 233 1.0 2.0 0.00 0.00 0.00 62 1019.2
20260831040338 68 235 1.0 3.0 0.00 0.00 0.00 60 1019.2
20260831035358 68 233 1.0 3.0 0.00 0.00 0.00 59 1019.3
20260831034356 69 232 1.0 3.0 0.00 0.00 0.00 61 1019.2
20260831033336 68 232 0.0 4.0 0.00 0.00 0.00 58 1019.3
20260831032337 69 232 2.0 4.0 0.00 0.00 0.00 59 1019.2
20260831031356 69 232 1.0 4.0 0.00 0.00 0.00 59 1019.3
20260831030354 69 232 1.0 3.0 0.00 0.00 0.00 59 1019.2
20260831025352 69 231 2.0 3.0 0.00 0.00 0.00 57 1019.2
20260831024352 69 231 1.0 3.0 0.00 0.00 0.00 57 1019.2
20260831023351 70 231 1.0 3.0 0.00 0.00 0.00 57 1019.1
20260831022345 70 230 2.0 4.0 0.00 0.00 0.00 56 1019.1
20260831021349 70 230 1.0 3.0 0.00 0.00 0.00 57 1019.1
20260831020356 70 230 0.0 0.0 0.00 0.00 0.00 58 1019.0
20260831015353 70 230 0.0 0.0 0.00 0.00 0.00 59 1019.0
20260831014340 71 230 0.0 0.0 0.00 0.00 0.00 59 1018.9
20260831013341 71 230 0.0 0.0 0.00 0.00 0.00 59 1019.0
20260831012357 72 230 0.0 0.0 0.00 0.00 0.00 58 1019.0
20260831011338 72 230 0.0 0.0 0.00 0.00 0.00 58 1018.9
20260831010341 72 230 0.0 1.0 0.00 0.00 0.00 57 1018.9
20260831005342 72 230 0.0 1.0 0.00 0.00 0.00 56 1018.9
20260831004343 72 230 0.0 2.0 0.00 0.00 0.00 55 1018.9
20260831003342 72 230 1.0 4.0 0.00 0.00 0.00 55 1018.8
20260831002353 72 230 1.0 4.0 0.00 0.00 0.00 56 1018.8
20260831001337 73 230 1.0 3.0 0.00 0.00 0.00 56 1018.6
20260831000340 73 230 0.0 0.0 0.00 0.00 0.00 56 1018.7
20260830235359 73 229 0.0 0.0 0.00 0.00 0.00 55 1018.8
20260830234356 74 229 0.0 1.0 0.00 0.00 0.00 55 1018.7
20260830233356 74 229 0.0 1.0 0.00 0.00 0.00 55 1018.8
20260830232348 74 229 0.0 1.0 0.00 0.00 0.00 54 1018.8
20260830231351 74 229 1.0 2.0 0.00 0.00 0.00 54 1018.8
20260830230349 74 229 2.0 3.0 0.00 0.00 0.00 53 1018.9
20260830225344 75 229 1.0 2.0 0.00 0.00 0.00 52 1018.8
20260830224348 75 229 1.0 2.0 0.00 0.00 0.00 51 1018.8
20260830223348 75 229 0.0 3.0 0.00 0.00 0.00 50 1018.8
20260830222345 75 229 1.0 3.0 0.00 0.00 0.00 50 1018.8
20260830221343 75 229 1.0 3.0 0.00 0.00 0.00 50 1018.7
20260830220344 76 229 1.0 2.0 0.00 0.00 0.00 49 1018.7
20260830215339 76 229 0.0 2.0 0.00 0.00 0.00 49 1018.7
20260830214338 76 229 1.0 3.0 0.00 0.00 0.00 49 1018.6
20260830213337 77 231 0.0 1.0 0.00 0.00 0.00 50 1018.6
20260830212354 77 231 0.0 2.0 0.00 0.00 0.00 49 1018.5
20260830211338 77 231 0.0 2.0 0.00 0.00 0.00 50 1018.4
20260830210339 78 231 2.0 2.0 0.00 0.00 0.00 51 1018.6
20260830205358 78 231 2.0 3.0 0.00 0.00 0.00 50 1018.5
20260830204356 78 231 1.0 1.0 0.00 0.00 0.00 48 1018.4
20260830203340 79 231 0.0 4.0 0.00 0.00 0.00 50 1018.4
20260830202336 79 231 2.0 5.0 0.00 0.00 0.00 53 1018.3
20260830201336 80 209 2.0 3.0 0.00 0.00 0.00 51 1018.4
20260830200342 80 209 2.0 4.0 0.00 0.00 0.00 50 1018.3
20260830195342 81 208 3.0 4.0 0.00 0.00 0.00 48 1018.1
20260830194345 81 206 3.0 4.0 0.00 0.00 0.00 45 1018.2
20260830193348 82 205 2.0 4.0 0.00 0.00 0.00 41 1018.1
20260830192339 82 205 1.0 3.0 0.00 0.00 0.00 39 1017.9
20260830191339 82 205 0.0 3.0 0.00 0.00 0.00 38 1017.8
20260830190339 83 204 2.0 3.0 0.00 0.00 0.00 38 1017.6
20260830185340 83 204 2.0 4.0 0.00 0.00 0.00 37 1017.5
20260830184339 83 223 2.0 7.0 0.00 0.00 0.00 37 1017.4
20260830183341 84 221 2.0 5.0 0.00 0.00 0.00 36 1017.4
20260830182354 84 218 3.0 6.0 0.00 0.00 0.00 35 1017.3
20260830181353 85 242 2.0 10.0 0.00 0.00 0.00 35 1017.4
20260830180353 85 213 5.0 9.0 0.00 0.00 0.00 33 1017.3
20260830175343 86 212 2.0 8.0 0.00 0.00 0.00 33 1017.3
20260830174356 86 248 6.0 10.0 0.00 0.00 0.00 34 1017.2
20260830173354 87 209 3.0 9.0 0.00 0.00 0.00 34 1017.3
20260830172348 88 255 2.0 6.0 0.00 0.00 0.00 33 1017.2
20260830171347 87 159 1.0 10.0 0.00 0.00 0.00 32 1017.3
20260830170344 88 52 5.0 10.0 0.00 0.00 0.00 32 1017.2
20260830165400 88 257 2.0 8.0 0.00 0.00 0.00 33 1017.2
20260830164357 88 203 3.0 10.0 0.00 0.00 0.00 32 1017.1
20260830163356 87 218 7.0 17.0 0.00 0.00 0.00 33 1017.1
20260830162351 87 221 10.0 16.0 0.00 0.00 0.00 34 1017.1
20260830161346 88 195 7.0 13.0 0.00 0.00 0.00 35 1017.1
20260830160344 88 216 9.0 15.0 0.00 0.00 0.00 33 1017.1
20260830155340 88 228 5.0 17.0 0.00 0.00 0.00 36 1017.0
20260830154400 89 223 5.0 10.0 0.00 0.00 0.00 34 1017.2
20260830153340 88 199 4.0 12.0 0.00 0.00 0.00 35 1017.1
20260830152354 88 24 3.0 11.0 0.00 0.00 0.00 35 1017.3
20260830151352 88 160 3.0 12.0 0.00 0.00 0.00 35 1017.3
20260830150348 88 220 8.0 14.0 0.00 0.00 0.00 34 1017.3
20260830145341 88 210 8.0 14.0 0.00 0.00 0.00 35 1017.4
20260830144345 88 209 9.0 19.0 0.00 0.00 0.00 35 1017.4
20260830143346 89 168 3.0 9.0 0.00 0.00 0.00 32 1017.4
20260830142340 89 53 5.0 13.0 0.00 0.00 0.00 35 1017.5
20260830141341 88 200 5.0 14.0 0.00 0.00 0.00 38 1017.6
20260830140339 89 203 8.0 13.0 0.00 0.00 0.00 37 1017.7
20260830135355 88 214 4.0 14.0 0.00 0.00 0.00 32 1017.8
20260830134349 88 223 5.0 15.0 0.00 0.00 0.00 35 1017.9
20260830133346 88 243 10.0 17.0 0.00 0.00 0.00 32 1017.9
20260830132339 88 219 8.0 15.0 0.00 0.00 0.00 34 1018.0